Voltar ao catálogo

STARLINK-34906

AtivoComunicaçõesVLEO
NORAD 65896·PAYLOAD·🇺🇸 United States

Lançado Oct 7, 2025 de Cape Canaveral Space Force Station

Loading…

Próximas Passagens (próximas 24 horas)

TLE

AtualizadoSource: CelesTrak SupGP

Época: Sep 15, 2026, 02:33 UTC

1 65896C 25224Q   26258.10673611 -.00068058  00000+0 -21886-2 0  2580
2 65896  53.1572 210.0640 0001328  88.4179 337.2567 15.31734743    15

Acompanhe STARLINK-34906 em tempo real com AllMySat

Download on the App Store